Flag for U.S.A. Weather past 2 weeks in Wilmington, Delaware, U.S.A.

Now
35 °F

Broken clouds.


Feels Like: 25 °F
Forecast: 20 / 37 °F
Wind: 17 mph from Northwest

Location: New Castle County Airport

Current Time: Jan 30, 2015 at 9:16:16 AM

Latest Report: Jan 30, 2015 at 8:51 AM


Visibility: 10 mi

Pressure: 29.95 "Hg

Humidity: 72%

Dew point: 27 °F

Location of WilmingtonLocation

Historic Weather in Wilmington — Graph

°F

Wilmington temperature yesterday

Maximum temperature yesterday: 34 °F (at 6:51 PM)
Minimum temperature yesterday: 17 °F (at 5:51 AM)
Average temperature yesterday: 28 °F

Past Weeks' High & Low Weather Summary

 TemperatureHumidityPressure
High47 °F (Jan 25, 11:51 AM)97% (Jan 18, 9:51 AM)30.44 "Hg (Jan 18, 9:51 AM)
Low17 °F (Jan 29, 5:51 AM)25% (Jan 28, 2:51 PM)29.37 "Hg (Jan 24, 1:51 PM)
Average32 °F68%30.01 "Hg
* Reported Jan 15 7:51 AM — Jan 30 7:51 AM, Wilmington, Weather by CustomWeather, © 2014

Note: Actual official high and low records may vary slightly from our data, if they occured in-between our weather recording intervals... More about our weather records

Advertising

Wilmington weather history for previous 24 hours

 ConditionsComfort  
Time TempWeatherWind HumidityBarometerVisibility
7:51 AM
Jan 30
34 °FPartly sunny.15 mph70%29.94 "Hg10 mi
6:51 AM35 °FOvercast.18 mph67%29.92 "Hg10 mi
5:51 AM35 °FOvercast.14 mph70%29.90 "Hg10 mi
4:51 AM34 °FOvercast.10 mph67%29.88 "Hg10 mi
3:51 AM33 °FMostly cloudy.5 mph72%29.89 "Hg10 mi
2:51 AM34 °FOvercast.3 mph73%29.90 "Hg10 mi
1:51 AM33 °FOvercast.3 mph78%29.91 "Hg10 mi
12:51 AM33 °FOvercast.No wind75%29.93 "Hg10 mi
11:51 PM
Jan 29
33 °FMostly cloudy.7 mph70%29.96 "Hg10 mi
10:51 PM33 °FOvercast.9 mph66%29.99 "Hg10 mi
9:51 PM32 °FMostly cloudy.9 mph75%30.02 "Hg10 mi
8:51 PM31 °FOvercast.8 mph79%30.05 "Hg10 mi
7:51 PM31 °FLight snow. Mostly cloudy.8 mph79%30.09 "Hg9 mi
6:51 PM34 °FMostly cloudy.10 mph70%30.12 "Hg10 mi
5:51 PM33 °FMostly cloudy.10 mph58%30.11 "Hg10 mi
4:51 PM32 °FOvercast.14 mph59%30.13 "Hg10 mi
3:51 PM32 °FMostly cloudy.10 mph56%30.15 "Hg10 mi
2:51 PM32 °FOvercast.9 mph43%30.19 "Hg10 mi
1:51 PM32 °FPartly sunny.12 mph41%30.21 "Hg10 mi
12:51 PM32 °FSunny.9 mph41%30.24 "Hg10 mi
11:51 AM31 °FSunny.7 mph40%30.28 "Hg10 mi
10:51 AM30 °FSunny.7 mph38%30.31 "Hg10 mi
9:51 AM28 °FSunny.6 mph45%30.33 "Hg10 mi
Weather by CustomWeather, © 2014

See weather overviewHow to use our weather pages